Theta_e
316 316 316 316 316 316 316 315 315 315 315 314 313 314 315 314 314 306 299 305 309 317 322 311 312 310 302 296 296 295 286 282 285 287 289 296 294 299 302 300 301 305 322 331 340
314 314 314 315 315 316 315 316 315 315 315 314 314 313 313 315 305 301 310 316 318 318 311 306 302 301 296 295 293 291 285 286 292 293 291 295 293 296 298 298 300 302 328 337 340
313 313 313 313 313 313 314 315 315 314 314 313 313 313 313 312 295 297 319 320 319 319 313 308 304 298 293 291 292 290 288 291 294 297 297 296 297 298 296 295 298 299 325 334 337
312 312 312 312 313 312 312 313 314 314 314 313 313 313 314 305 285 299 330 321 321 317 313 306 300 293 291 289 291 287 291 294 294 297 297 296 299 297 297 298 301 301 315 334 335
311 312 312 312 312 312 312 312 312 313 313 313 313 312 308 296 296 306 317 312 316 314 310 302 299 295 289 290 290 286 289 293 297 296 295 297 295 295 296 300 302 302 320 333 333
310 310 311 311 310 311 312 312 312 311 311 312 312 313 303 291 304 305 305 306 314 311 309 305 300 298 294 290 292 292 292 293 292 293 294 296 297 296 297 301 301 300 301 328 333
311 310 309 309 309 309 311 310 310 311 310 312 312 309 300 296 306 304 303 301 305 312 307 310 306 301 296 291 296 292 289 290 291 293 291 293 291 293 298 300 299 300 300 301 319
310 309 309 309 309 309 310 310 310 310 310 311 312 307 296 306 308 305 305 303 304 304 302 305 309 300 294 295 293 290 290 286 289 291 292 293 287 293 297 298 298 300 300 300 300
309 309 308 308 309 309 310 310 310 310 311 313 307 303 293 308 303 306 306 301 303 303 303 309 308 299 295 289 286 286 280 283 286 290 292 290 287 295 297 297 297 298 299 300 300
309 309 309 308 308 310 309 308 308 308 308 308 307 297 298 296 304 307 308 305 302 300 298 298 302 294 293 289 283 282 282 283 285 290 289 288 286 292 294 296 295 296 297 298 299
307 308 308 309 309 309 305 300 292 289 295 295 296 297 297 303 306 305 308 302 301 298 289 296 296 290 292 294 293 288 286 286 287 291 289 289 288 290 293 293 293 294 295 296 297
307 306 307 308 308 308 303 295 296 293 287 294 294 294 298 300 294 298 304 298 296 293 295 294 291 297 297 295 293 291 286 286 290 292 290 289 289 292 293 293 294 294 295 295 296
307 307 308 308 307 298 292 294 299 297 286 290 295 294 296 299 294 296 301 297 294 292 293 290 293 300 295 293 291 290 287 286 287 292 291 289 287 290 294 295 296 295 296 296 297
307 307 308 307 299 294 293 297 296 297 283 287 292 296 300 300 295 303 304 298 293 289 294 293 298 297 294 290 291 286 291 291 290 288 282 289 279 286 291 293 295 296 295 295 296
307 307 308 307 299 293 297 295 296 296 272 286 292 303 300 295 296 300 306 300 291 290 294 293 294 293 292 292 292 288 293 291 291 286 283 285 281 284 290 291 294 296 296 296 297
307 307 307 299 294 297 299 296 295 285 274 285 292 292 292 294 293 298 302 302 300 294 294 295 300 297 293 296 294 295 292 291 289 286 279 284 283 282 287 291 294 296 297 298 298
306 307 303 302 293 296 297 294 281 276 288 284 288 291 290 289 290 296 295 294 289 285 286 293 294 298 298 291 296 294 287 278 278 278 278 284 282 284 291 297 299 298 299 298 300
305 305 299 299 298 297 297 289 277 283 284 292 291 290 287 290 291 294 293 290 295 292 287 286 285 295 298 294 291 291 288 278 274 276 277 286 280 286 302 307 311 311 304 310 314
304 294 293 295 298 296 293 280 282 286 288 288 288 286 286 290 290 289 290 290 293 295 289 287 287 298 300 298 296 291 287 288 282 282 279 282 286 297 305 306 310 311 313 314 317
296 289 290 297 300 295 287 282 285 290 291 290 285 289 284 287 287 286 288 294 293 296 296 293 286 297 298 302 299 295 295 285 285 277 276 281 284 285 297 302 306 307 308 310 315
291 286 293 299 296 287 276 282 286 292 291 288 287 286 286 286 288 287 288 294 296 296 298 293 292 292 297 295 293 294 291 290 287 282 278 280 284 295 301 304 304 308 310 309 310
293 280 293 294 282 282 282 285 290 290 291 291 290 289 287 288 287 288 287 293 300 298 292 297 293 287 291 298 301 296 291 289 283 280 283 283 285 300 305 307 308 308 308 306 306
289 287 294 292 279 281 286 285 289 288 288 289 287 291 292 288 285 290 291 298 300 298 294 296 291 285 286 292 298 294 291 291 287 287 284 282 288 305 307 307 308 305 304 304 304
288 283 285 286 286 284 283 284 284 289 289 289 289 291 289 286 291 286 290 295 297 300 303 299 294 287 283 286 292 289 291 293 289 283 284 285 293 300 303 304 305 304 304 304 305
285 281 289 282 283 285 286 285 284 283 289 290 288 288 287 284 287 287 290 291 296 302 300 296 287 291 292 294 294 293 292 292 290 289 286 290 294 299 302 304 305 305 305 304 304
283 286 290 286 287 284 285 284 284 286 286 285 286 289 288 285 286 284 288 289 290 293 296 295 287 293 291 294 294 292 294 294 294 293 294 295 294 304 306 307 305 305 304 303 302
294 296 290 286 284 283 285 285 286 287 288 290 289 287 286 288 291 291 292 292 292 291 291 293 287 289 286 294 293 289 295 295 296 297 297 292 296 304 303 304 304 302 301 301 298
Wind_Speed
20 20 19 19 18 18 18 17 16 15 13 13 15 15 14 17 19 11 17 17 14 22 11 3 6 6 4 2 5 5 2 6 7 7 5 5 4 0 1 3 1 3 3 6 11
20 20 20 20 20 19 21 20 19 19 18 16 15 13 15 16 13 18 18 16 20 6 9 9 7 10 5 6 4 6 5 11 7 6 4 3 2 2 3 5 3 0 6 6 10
21 20 20 20 21 20 21 21 22 21 20 19 18 17 14 12 5 10 3 9 14 15 4 6 6 7 6 4 6 7 8 7 6 6 6 5 5 6 4 6 7 1 7 3 6
21 21 21 21 21 21 21 21 21 21 21 20 19 16 15 3 9 2 5 13 8 9 7 6 7 9 8 10 8 6 9 7 6 5 4 4 3 6 9 9 6 3 6 4 7
21 21 22 22 23 23 23 23 23 21 20 18 17 14 7 6 16 8 19 14 3 12 10 9 10 8 10 7 4 5 3 9 14 9 7 6 8 8 8 7 9 4 6 7 8
22 23 23 24 25 25 23 24 25 23 21 19 17 13 6 21 9 7 8 7 7 12 10 6 10 6 6 5 14 6 12 11 6 7 5 14 22 8 6 8 7 5 10 9 9
22 24 25 26 26 26 25 27 27 26 25 22 19 11 15 26 8 5 2 2 4 3 7 16 5 12 9 2 11 4 4 4 10 14 7 7 20 17 7 6 11 8 8 8 10
23 23 26 28 28 28 27 29 31 31 29 24 18 10 17 5 19 26 22 22 18 11 6 9 11 3 4 3 3 7 8 10 7 10 8 13 29 4 8 10 11 10 8 9 9
24 24 26 29 30 30 28 30 34 30 21 12 6 7 12 7 8 15 18 12 11 14 11 12 9 5 4 4 2 6 4 6 4 9 8 13 1 10 10 9 10 10 9 9 8
25 25 25 28 31 31 29 33 27 9 1 6 4 4 7 7 5 5 6 17 3 8 8 10 8 7 11 11 14 5 4 3 9 10 9 9 5 10 4 8 10 11 9 9 9
28 26 26 27 29 30 25 8 6 4 3 7 7 8 13 4 4 4 6 10 3 8 14 13 11 23 23 21 16 2 5 12 6 6 9 18 8 11 10 7 7 9 8 8 9
30 29 29 28 30 30 7 3 3 2 16 18 25 29 28 15 15 24 10 4 9 11 12 9 30 15 10 15 17 16 6 6 4 4 6 5 8 9 10 6 8 11 11 10 6
29 29 30 29 31 4 1 5 5 7 6 10 8 9 7 9 13 13 15 12 11 9 21 23 6 19 17 17 19 20 18 4 4 1 2 1 6 5 8 5 6 7 9 9 12
29 29 30 30 7 3 5 3 4 1 6 10 5 7 4 7 7 11 10 6 10 12 12 18 18 23 23 21 16 18 12 8 4 2 4 4 6 5 6 8 5 9 9 11 11
30 31 30 24 6 4 5 4 6 2 6 3 2 5 4 4 7 9 10 8 14 18 10 11 21 18 22 19 20 9 18 9 4 4 1 2 2 8 3 5 10 10 11 11 11
31 33 30 1 1 7 5 6 1 3 8 6 1 8 8 9 6 4 2 5 5 14 17 20 14 17 14 16 19 9 15 9 4 5 4 6 7 6 5 6 6 6 9 10 8
33 33 20 1 5 1 3 3 3 5 6 7 9 9 19 13 6 3 3 6 6 7 19 16 22 11 19 15 13 21 12 5 3 3 8 6 7 10 3 4 3 7 5 5 1
33 28 4 4 7 1 2 1 5 6 7 17 10 21 6 4 5 3 2 4 10 9 7 14 14 23 16 14 15 16 14 7 8 7 3 6 6 5 4 5 5 6 6 9 11
27 5 5 5 7 3 2 2 4 7 9 9 16 6 3 9 7 9 6 4 6 10 8 14 7 14 9 6 13 15 12 8 8 2 5 5 0 1 7 10 10 9 13 16 15
9 4 5 10 4 4 3 6 5 7 12 8 6 4 4 6 4 4 5 5 3 9 3 2 10 8 24 2 13 21 11 8 2 7 6 4 7 5 3 8 9 11 14 16 16
3 5 5 15 4 6 3 5 12 14 18 7 9 7 5 5 4 4 7 5 9 5 12 6 3 6 8 9 11 7 13 4 6 5 6 5 4 2 7 7 11 11 12 16 17
4 4 5 7 6 2 7 13 11 14 19 7 9 3 5 5 6 4 4 6 10 8 1 7 1 6 6 9 11 11 15 8 6 3 2 4 2 2 6 10 11 13 14 15 18
6 4 4 5 6 6 9 11 12 19 19 7 8 10 10 7 6 8 6 7 3 9 4 2 2 6 3 4 12 12 5 10 6 3 5 6 3 4 7 11 12 16 16 16 18
4 6 5 5 1 4 12 8 12 14 14 15 11 8 14 10 5 5 10 11 18 3 7 7 3 3 7 4 12 11 7 15 6 5 3 3 10 9 9 13 14 16 15 16 15
4 2 2 7 8 13 13 6 16 14 3 9 6 10 15 9 10 6 6 10 12 10 4 1 3 3 4 18 19 18 14 13 9 5 5 9 13 17 15 16 15 16 13 14 14
3 4 4 8 10 8 9 4 17 14 9 11 7 14 14 10 12 8 10 4 5 11 5 4 4 5 7 10 18 12 15 15 7 6 5 16 6 10 14 13 14 15 15 15 14
3 3 3 6 5 7 6 17 22 20 10 13 17 20 14 14 13 18 14 11 14 8 5 5 3 4 4 5 9 12 3 9 4 1 14 8 10 17 16 18 13 14 15 15 15
Wind_Direction
341 340 338 334 332 329 326 326 325 322 317 316 321 318 316 312 305 292 253 223 191 233 185 11 115 144 83 172 167 130 167 211 220 195 237 315 177 252 335 241 341 269 267 283 127
345 342 339 336 332 329 325 320 319 319 317 317 318 317 315 311 301 268 249 232 223 202 200 183 156 141 151 186 191 161 193 210 209 203 226 230 286 26 333 334 305 214 284 340 151
346 343 340 336 333 330 327 324 318 316 314 315 318 320 316 324 289 244 347 198 216 207 162 168 142 148 152 151 198 201 219 202 218 218 226 233 257 195 193 262 229 246 282 72 126
346 342 339 335 331 329 324 318 312 311 312 311 312 314 315 332 288 171 116 11 335 171 195 166 157 154 178 194 202 219 218 197 208 224 237 251 254 278 201 228 205 313 260 159 137
344 340 338 334 330 327 323 316 308 307 306 302 298 303 325 259 248 294 308 330 269 157 197 170 164 158 177 193 162 216 221 196 223 233 239 269 241 246 236 275 279 295 256 196 166
340 338 335 332 328 324 319 312 307 307 303 294 287 279 243 258 270 264 267 290 205 158 181 195 198 172 182 205 197 198 194 224 224 215 236 252 262 239 97 205 272 253 230 223 201
338 337 333 330 327 324 319 313 306 302 300 289 278 252 233 238 241 240 214 181 3 195 175 209 196 173 152 179 231 164 238 259 228 220 210 192 268 239 231 225 266 245 235 240 230
338 335 332 328 325 322 319 311 302 302 297 287 270 244 255 231 251 253 253 263 270 269 268 295 218 228 175 253 14 194 229 246 188 178 221 177 255 28 203 192 228 235 212 223 211
336 332 329 325 322 320 317 308 301 303 298 265 196 193 262 314 241 251 221 219 223 224 229 255 183 196 158 120 295 223 194 192 194 200 176 183 129 243 204 199 226 232 220 208 222
334 330 325 322 319 317 319 311 300 302 332 126 154 185 261 240 206 227 181 192 213 159 190 210 201 191 210 183 209 192 172 185 187 207 206 222 217 282 237 201 222 237 224 203 205
333 329 325 324 319 319 326 329 17 341 343 225 215 242 267 196 274 184 121 150 230 164 202 189 202 209 199 210 222 226 186 201 205 204 161 230 240 236 251 230 219 236 239 226 223
331 328 326 327 323 321 316 318 255 305 291 239 250 253 258 263 285 269 264 257 174 194 185 177 225 194 186 197 212 231 245 236 258 195 156 225 242 226 249 218 202 206 226 233 201
328 327 324 328 321 2 254 237 319 339 277 278 224 234 233 187 221 271 169 199 225 206 194 202 252 196 189 188 196 213 217 196 155 210 138 136 289 215 253 219 222 225 212 209 213
328 326 325 333 331 297 292 250 353 346 287 278 230 254 163 137 221 206 181 177 182 228 224 222 224 192 190 205 184 209 189 186 205 98 213 142 268 263 225 269 251 257 224 211 206
329 326 329 331 285 300 261 8 312 131 311 281 257 138 159 204 272 193 183 183 199 196 192 212 191 184 197 201 183 207 178 193 191 168 138 229 47 271 244 259 268 253 234 225 205
329 326 331 53 282 242 314 321 148 257 253 303 270 358 348 292 271 223 148 153 222 230 214 216 188 187 196 199 187 181 162 157 142 124 263 185 157 275 200 204 286 258 215 220 213
328 322 326 241 260 343 323 28 323 226 332 316 336 345 319 303 294 185 175 197 138 197 217 202 221 213 169 175 185 185 155 120 110 162 217 208 149 239 167 11 309 307 4 353 241
329 318 261 237 264 350 328 340 228 271 292 339 325 312 293 341 305 241 196 244 202 227 182 203 201 212 189 187 184 197 165 148 160 177 176 117 221 239 50 29 18 41 61 61 64
329 326 307 277 308 117 49 310 314 336 329 315 305 278 290 305 343 318 221 241 203 197 196 202 249 178 210 145 158 174 196 172 100 113 104 199 19 349 62 57 66 72 84 88 88
329 349 288 334 350 48 52 318 296 304 303 296 284 260 277 305 274 292 206 194 222 213 219 223 195 219 200 206 179 183 157 163 99 157 176 211 165 192 93 109 103 99 96 100 88
360 2 276 338 52 38 63 291 301 314 330 296 300 282 279 289 272 268 283 254 159 268 213 203 249 152 137 193 189 126 180 121 116 145 149 135 252 300 144 133 121 97 100 98 90
337 354 314 352 44 349 344 316 301 308 333 319 297 302 268 309 282 286 288 294 144 208 334 217 1 117 174 167 187 192 173 146 171 198 115 118 240 112 114 116 116 103 93 92 91
332 288 323 41 24 341 328 315 293 332 327 339 302 334 347 301 302 304 277 300 332 193 176 243 48 105 74 353 184 223 184 145 128 105 194 123 182 133 120 124 118 115 109 102 100
358 342 324 24 86 311 321 322 326 327 309 342 286 327 338 315 312 325 335 332 328 344 101 99 277 216 159 196 137 196 175 168 122 107 153 190 141 155 149 139 125 121 117 112 111
18 306 358 320 321 319 317 286 322 338 313 310 304 338 336 311 314 349 353 324 330 5 90 67 309 280 131 139 147 174 166 157 158 175 140 174 151 168 159 145 134 126 121 116 115
24 334 314 294 284 304 312 306 318 323 314 305 268 310 312 286 289 303 333 346 321 342 353 14 313 300 55 138 151 161 156 148 141 131 63 136 94 138 142 118 133 133 123 113 99
296 266 285 294 305 315 328 319 310 317 301 292 296 302 296 302 321 301 287 275 276 298 308 350 9 332 72 103 68 128 126 125 83 71 143 152 166 141 147 142 143 129 116 110 105